Flag for Barbados Weather past 2 weeks in Bridgetown, Barbados

Now
82 °F

Passing clouds.


Feels Like: 89 °F
Forecast: N/A
Wind: 15 mph from East

Location: Grantley Adams

Current Time: Jul 29, 2014 at 6:11:21 PM

Latest Report: Jul 29, 2014 at 5:00 PM


Visibility: N/A

Pressure: 29.95 "Hg

Humidity: 79%

Dew point: 75 °F

Location of BridgetownLocation

Historic Weather in Bridgetown — Graph

°F

Bridgetown temperature yesterday

Maximum temperature yesterday: 86 °F (at 11:00 AM)
Minimum temperature yesterday: 79 °F (at 12:00 AM)
Average temperature yesterday: 82 °F

Past Weeks' High & Low Weather Summary

 TemperatureHumidityPressure
High88 °F (Jul 24, 3:00 PM)100% (Jul 15, 9:00 AM)30.09 "Hg (Jul 15, 9:00 AM)
Low36 °F (Jul 16, 3:00 AM)66% (Jul 17, 10:00 AM)29.92 "Hg (Jul 24, 4:00 PM)
Average81 °F80%30.01 "Hg
* Reported Jul 14 5:00 PM — Jul 29 5:00 PM, Bridgetown, Weather by CustomWeather, © 2014

Note: Actual official high and low records may vary slightly from our data, if they occured in-between our weather recording intervals... More about our weather records

Advertising

Bridgetown weather history for previous 24 hours

 ConditionsComfort  
Time TempWeatherWind HumidityBarometerVisibility
5:00 PM
Jul 29
82 °FPassing clouds.15 mph79%29.95 "HgN/A
4:00 PM82 °FScattered clouds.16 mph79%29.95 "HgN/A
3:00 PM84 °FPartly sunny.18 mph79%29.98 "HgN/A
2:00 PM84 °FPassing clouds.13 mph79%29.98 "HgN/A
1:00 PM86 °FPassing clouds.14 mph75%30.01 "HgN/A
12:00 PM86 °FScattered clouds.15 mph75%30.01 "HgN/A
11:00 AM86 °FScattered clouds.14 mph70%30.04 "HgN/A
10:00 AM84 °FScattered clouds.15 mph70%30.04 "HgN/A
9:00 AM86 °FPartly sunny.14 mph70%30.04 "HgN/A
8:00 AM82 °FScattered clouds.14 mph79%30.01 "HgN/A
7:00 AM81 °FPassing clouds.12 mph79%30.01 "HgN/A
6:00 AM79 °FScattered clouds.12 mph84%30.01 "HgN/A
5:00 AM79 °FPassing clouds.13 mph84%29.98 "HgN/A
4:00 AM79 °FPassing clouds.15 mph84%29.98 "HgN/A
3:00 AM79 °FPassing clouds.14 mph84%30.01 "HgN/A
2:00 AM79 °FPassing clouds.13 mph84%30.01 "HgN/A
1:00 AM79 °FPassing clouds.13 mph84%30.01 "HgN/A
12:00 AM81 °FPassing clouds.13 mph79%30.04 "HgN/A
11:00 PM
Jul 28
81 °FPassing clouds.14 mph79%30.04 "HgN/A
10:00 PM81 °FPassing clouds.13 mph79%30.04 "HgN/A
9:00 PM81 °FPassing clouds.16 mph79%30.04 "HgN/A
8:00 PM81 °FPassing clouds.15 mph79%30.01 "HgN/A
7:00 PM82 °FPassing clouds.13 mph74%30.01 "HgN/A
6:00 PM82 °FScattered clouds.14 mph74%29.98 "HgN/A
Weather by CustomWeather, © 2014

See weather overviewHow to use our weather pages